(312) Pierretta
ephemeris date magn radius delta ra dec elong phase
Today14 Jul 202614.72.892 AU3.060 AU02h28m+16°59'70.9°19.4°
Opposition3 Nov 202613.23.048 AU2.062 AU02h27m+22°44'172.2°2.5°
(312) Pierretta - 2026-07-14
astro.vanbuitenen.nl


 
-1 year
-1 month
-1 day
Now
+1 day
+1 month
+1 year

The interactive orbit chart above shows the body's path through the solar system and its position at the given date. Green and blue lines are shown perpendicular to the ecliptic plane: Green if the path is above the ecliptic plane, blue if it is below. (Left-click and drag to rotate the view; Right-click and drag to move the view; Use scroll wheel to zoom in our out.)

The orbital elements of Pierretta are:

            e (Eccentricity)                : 0.1602788
            a (Semimajor axis)              : 2.7816262
            i (Inclination)                 : 9.03533
            Ω (Longitude of ascending node) : 6.19354
            ω (Argument of perihelion)      : 261.83463
            M (Mean anomaly)                : 87.97588
            Epoch                           : 2026 Jun 09

            L (Longitude of perihelion)     : 87.92699
            B (Latitude of perihelion)      : -8.94298
            P (Orbital period in years)     : 4.64            
        

The light curve chart below shows the estimated development of the minor planet's magnitude.


The all-sky chart below shows the path of the minor planet over the same period as the light curve. The current position is marked yellow.





The following chart shows the path of the minor planet in the next few days. The field of view is optimized for (~10x50) binoculars and finderscopes.




Ephemerides:
Date       Time       RA (2000)    DEC (2000)    delta   radius  elong  phase   PA    magn
2026-07-14 00:00 UT   02 28 49.3   +16 59 44     3.060    2.892   70.9   19.4   252   14.7 
2026-07-14 05:02 UT   02 29 01.9   +17 01 14     3.058    2.892   71.1   19.4   252   14.7 
2026-07-15 00:00 UT   02 29 49.1   +17 06 51     3.049    2.893   71.6   19.5   252   14.7 
2026-07-16 00:00 UT   02 30 48.2   +17 13 55     3.037    2.895   72.3   19.5   252   14.7 
2026-07-17 00:00 UT   02 31 46.6   +17 20 56     3.026    2.896   73.0   19.6   252   14.7 
2026-07-18 00:00 UT   02 32 44.3   +17 27 54     3.014    2.898   73.7   19.7   252   14.6 
2026-07-19 00:00 UT   02 33 41.3   +17 34 48     3.003    2.899   74.4   19.7   252   14.6 
2026-07-20 00:00 UT   02 34 37.7   +17 41 38     2.991    2.901   75.1   19.8   253   14.6 
2026-07-21 00:00 UT   02 35 33.3   +17 48 26     2.979    2.903   75.8   19.8   253   14.6 
2026-07-22 00:00 UT   02 36 28.2   +17 55 10     2.968    2.904   76.5   19.9   253   14.6 
2026-07-23 00:00 UT   02 37 22.3   +18 01 51     2.956    2.906   77.2   19.9   253   14.6 
2026-07-24 00:00 UT   02 38 15.7   +18 08 29     2.944    2.907   78.0   20.0   253   14.6 
2026-07-25 00:00 UT   02 39 08.4   +18 15 03     2.932    2.909   78.7   20.0   253   14.6 
2026-07-26 00:00 UT   02 40 00.2   +18 21 34     2.920    2.910   79.4   20.1   253   14.6 
2026-07-27 00:00 UT   02 40 51.3   +18 28 01     2.908    2.912   80.1   20.1   253   14.6 
2026-07-28 00:00 UT   02 41 41.5   +18 34 26     2.896    2.913   80.9   20.1   253   14.6 
2026-07-29 00:00 UT   02 42 31.0   +18 40 47     2.884    2.915   81.6   20.2   253   14.6 
2026-07-30 00:00 UT   02 43 19.6   +18 47 04     2.872    2.916   82.3   20.2   253   14.6 
2026-07-31 00:00 UT   02 44 07.3   +18 53 19     2.860    2.918   83.1   20.2   253   14.6 
2026-08-01 00:00 UT   02 44 54.2   +18 59 29     2.848    2.919   83.8   20.2   253   14.6 
2026-08-02 00:00 UT   02 45 40.3   +19 05 37     2.836    2.921   84.6   20.2   253   14.5 
2026-08-03 00:00 UT   02 46 25.4   +19 11 41     2.824    2.922   85.3   20.2   253   14.5 
2026-08-04 00:00 UT   02 47 09.6   +19 17 42     2.812    2.924   86.1   20.3   253   14.5 
2026-08-05 00:00 UT   02 47 52.9   +19 23 39     2.800    2.925   86.9   20.3   253   14.5 
2026-08-06 00:00 UT   02 48 35.3   +19 29 33     2.787    2.927   87.6   20.3   253   14.5 
2026-08-07 00:00 UT   02 49 16.7   +19 35 23     2.775    2.928   88.4   20.3   253   14.5 
2026-08-08 00:00 UT   02 49 57.1   +19 41 10     2.763    2.930   89.2   20.2   253   14.5 
2026-08-09 00:00 UT   02 50 36.5   +19 46 53     2.751    2.931   90.0   20.2   253   14.5 
2026-08-10 00:00 UT   02 51 15.0   +19 52 33     2.739    2.933   90.8   20.2   253   14.5 
2026-08-11 00:00 UT   02 51 52.3   +19 58 09     2.726    2.934   91.5   20.2   253   14.5 
2026-08-12 00:00 UT   02 52 28.7   +20 03 41     2.714    2.936   92.3   20.2   253   14.5 
2026-08-13 00:00 UT   02 53 03.9   +20 09 10     2.702    2.937   93.1   20.2   253   14.5 


    Terminology:
            
    delta:  distance between minor planet and earth in AU
    radius: distance between minor planet and sun in AU
    magn:   magnitude (brightness) estimate    
    ra:     right ascension in hours (24h = 360deg)
    dec:    declination in degrees
    elong:  elongation in degrees (angle sun-earth-minor planet)    
    phase:  phase angle in degrees (angle sun-minor planet-earth)        
    AU:     Astronomical Unit (mean distance between earth and sun: 149597870.7 km
    

Orbital elements provided by the MPC (Minor Planet Center).
Calculations by a modified version of AAPlus, a C# implementation of the AA+ project by PJ Naughter from the algorithms presented in the book "Astronomical Algorithms" by Jean Meeus.
NGC2000 dso catalog and star labels from VizieR as provided by the Strasbourg astronomical Data Center.
Tycho2 catalog from the ESO archive.